Regional Weather Roundup
Issued by NWS

Home | Current Version | Previous Version | Graphics & Text | Print | Product List | Glossary On
Versions: 1 2 3 4 5 6 7 8 9 10 11 12 13 14 15 16 17 18 19 20 21 22 23 24 25 26 27 28 29 30 31 32 33 34 35 36 37 38 39 40 41 42 43 44 45 46 47 48 49 50
000
ASUS45 KBOU 210007
RWRCO

WEATHER ROUNDUP FOR COLORADO
NATIONAL WEATHER SERVICE DENVER/BOULDER CO
600 PM MDT WED AUG 20 2014

NOTE: "FAIR" INDICATES FEW OR NO CLOUDS BELOW 12000 FEET WITH NO
SIGNIFICANT WEATHER AND/OR OBSTRUCTIONS TO VISIBILITY.

COZ001>005-013-030-031-210100-
...NORTHWEST COLORADO...

CITY           SKY/WX    TMP DP  RH WIND       PRES   REMARKS
CRAIG          SUNNY     74  46  36 W10       30.06S
HAYDEN         MOSUNNY   68  50  52 SE6       30.10S
MEEKER         SUNNY     73  46  38 NW3       30.07S
MOUNT WERNER   NOT AVBL
STEAMBOAT SPGS MOSUNNY   62  54  74 SE9       30.13F
WALDEN         CLOUDY    59  45  58 SW16G23   30.20R
$$

COZ006>008-011-210100-
...WEST CENTRAL VALLEYS...

CITY           SKY/WX    TMP DP  RH WIND       PRES   REMARKS
GRAND JUNCTION SUNNY     79  50  36 NW5       29.96S
MONTROSE       PTSUNNY   77  49  37 S6        30.06R
EAGLE          MOSUNNY   72  45  37 NW6       30.11F
RIFLE          MOSUNNY   80  46  30 W17       29.99F
DELTA          PTSUNNY   87  45  23 SW12      29.99S
NUCLA          PTSUNNY   79  37  22 SW6       30.10F
$$

COZ017>023-064>068-210100-
...SOUTHWEST COLORADO...

CITY           SKY/WX    TMP DP  RH WIND       PRES   REMARKS
DURANGO        SUNNY     78  35  21 W15G23    30.11S
CORTEZ         SUNNY     80  36  20 NW12      30.09S
PAGOSA SPRINGS MOSUNNY   75  33  21 SW16      30.18S THUNDER
TELLURIDE      NOT AVBL
WOLF CREEK PAS NOT AVBL
$$

COZ009-010-012-014-032>034-037-058>063-210100-
...CENTRAL COLORADO...

CITY           SKY/WX    TMP DP  RH WIND       PRES   REMARKS
ASPEN          MOSUNNY   69  43  38 NW5       30.17F
BUENA VISTA    CLOUDY    73  36  26 W14G20    30.12S
COPPER MTN     PTSUNNY   54  41  62 W20       30.46S
BERTHOUD PASS  FAIR      46  46 100 W15G31    30.50S
COTTONWOOD PAS DRIZZLE   64  34  32 W10G17    30.29S
GUNNISON       PTSUNNY   73  37  27 SW9G17    30.17S
KREMMLING      PTSUNNY   70  43  37 N21G29    30.16R
LEADVILLE      MOSUNNY   65  38  36 NW12      30.28S
MONARCH PASS   LGT RAIN  45  41  87 W23       30.57R
SALIDA         CLOUDY    73  41  30 SW18G26   30.18R
SUNLIGHT       PTSUNNY   61  50  67 CALM      30.40S
WILKERSON PASS MOSUNNY   63  32  31 S3        30.42S
$$

COZ069>075-210100-
...SAN LUIS VALLEY/SANGRE DE CRISTO MOUNTAINS...

CITY           SKY/WX    TMP DP  RH WIND       PRES   REMARKS
ALAMOSA        MOSUNNY   79  36  21 SW12      30.10S
LA VETA PASS   NOT AVBL
SAGUACHE       CLOUDY    66  46  48 NW14      30.17S
$$

COZ035-036-038>040-210100-
...NORTHERN COLORADO FRONT RANGE...

CITY           SKY/WX    TMP DP  RH WIND       PRES   REMARKS
DENVER INTL AP PTSUNNY   81  50  33 S12       29.92F
DMNS CITY PARK   N/A     81  48  31 SE7       29.92R
AURORA         NOT AVBL
FRONT RANGE AP NOT AVBL
ERIE MUNI ARPT PTSUNNY   82  42  24 E7        29.91R
BOULDER MUN AP PTSUNNY   79  52  38 CALM      29.92R
CENTENNIAL     MOSUNNY   79  49  34 SE10      29.96F
BROOMFIELD     LGT RAIN  79  45  29 SW13G24   29.95
FORT COLLINS   PTSUNNY   82  48  30 N18G29    29.90R
LONGMONT       PTSUNNY   85  44  24 S7        29.92R
$$

COZ041-046-047-076>085-087-088-210100-
...PIKES PEAK/PALMER DIVIDE AND SOUTHERN FOOTHILLS...

CITY           SKY/WX    TMP DP  RH WIND       PRES   REMARKS
COLO. SPRINGS  PTSUNNY   76  51  41 N15       30.00R
A. F. ACADEMY  MOSUNNY   77  51  39 NE9       30.02R
ELLICOTT       MOSUNNY   79  52  38 NE21      29.98R
FALCON         MOSUNNY   74  48  39 N9        30.06S
FORT CARSON    MOSUNNY   81  54  39 N12       29.96R
LIMON          MOSUNNY   78  50  37 N18       29.95R
MONUMENT HILL  MOSUNNY   72  46  40 E9        30.07S
TRINIDAD       PTSUNNY   83  48  29 SE6       29.95S
$$

COZ042>045-048>051-090-091-210100-
...NORTHEAST COLORADO...

CITY           SKY/WX    TMP DP  RH WIND       PRES   REMARKS
GREELEY ARPT   PTSUNNY   84  48  28 NE8       29.88S
AKRON          PTSUNNY   83  54  36 S13       29.90R
BURLINGTON     PTSUNNY   90  51  26 NE5       29.83S
WRAY             N/A     90  51  26 N3        29.81R
STERLING       PTSUNNY   86  59  39 NE8       29.83F
HOLYOKE        NOT AVBL
FORT MORGAN    PTSUNNY   86  50  28 SE7       29.87F
$$

COZ086-089-092>099-210100-
...SOUTHEAST COLORADO...

CITY           SKY/WX    TMP DP  RH WIND       PRES   REMARKS
PUEBLO         SUNNY     91  46  21 SE5       29.84S
LA JUNTA       PTSUNNY   93  52  24 SE12      29.81S
LAMAR          PTSUNNY   90  55  30 NE5       29.77F
SPRINGFIELD      N/A     90  47  22 SW8G20    29.84S
$$



USA.gov is the U.S. government's official web portal to all federal, state and local government web resources and services.